Murray, KY

9:34 PM CST on December 14, 2019 (GMT -0600)
Kyle-Oakley

Weather History for KCEY - October, 2019

Change the Weather History Date:

Wednesday, October 9, 2019

  Actual Average (KPAH) Record (KPAH)
Temperature  
Mean Temperature 62 °F -  
Max Temperature 78 °F 73 °F 91 °F (1939)
Min Temperature 46 °F 48 °F 30 °F (2000)
Degree Days  
Heating Degree Days 3    
Growing Degree Days 12 (Base 50)    
Moisture  
Dew Point 55 °F    
Average Humidity 81    
Maximum Humidity 100    
Minimum Humidity 44    
Precipitation  
Precipitation 0.00 in - - ()
Sea Level Pressure  
Sea Level Pressure 30.07 in    
Wind  
Wind Speed 3 mph (East)    
Max Wind Speed 10 mph    
Max Gust Speed -    
Visibility 10 miles    
Events      
Averages and records for this station are not official NWS values.
T = Trace of Precipitation, MM = Missing Value Source: NWS Daily Summary

Daily Weather History Graph

Daily Weather History Graph

Search for Another Location

Airport or City:

Astronomy

Oct. 09, 2019 Rise Set
Actual Time 6:55 AM CDT 6:25 PM CDT
Civil Twilight 6:29 AM CDT 6:51 PM CDT
Nautical Twilight 5:59 AM CDT 7:21 PM CDT
Astronomical Twilight 5:29 AM CDT 7:51 PM CDT
Moon 4:49 PM CDT (10/9) 2:50 AM CDT (10/9)
Length of Visible Light 12h 22m
Length of Day
11h 30m
Waxing Gibbous, 85% of the Moon is Illuminated
Oct 9
Waxing Gibbous
Oct 13
Full
Oct 21
Last Quarter
Oct 27
New
Nov 4
First Quarter

Hourly Weather History & Observations

Time (CDT) Temp. Windchill Dew Point Humidity Pressure Visibility Wind Dir Wind Speed Gust Speed Precip Events Conditions
12:15 AM 50.0 °F - 48.2 °F 94% 30.08 in 10.0 mi ENE 3.5 mph - N/A   Clear
12:35 AM 50.0 °F - 50.0 °F 100% 30.08 in 10.0 mi Calm Calm - N/A   Clear
12:55 AM 50.0 °F - 48.2 °F 94% 30.08 in 10.0 mi Calm Calm - N/A   Clear
1:15 AM 48.2 °F - 48.2 °F 100% 30.08 in 10.0 mi Calm Calm - N/A   Clear
1:35 AM 48.2 °F - 48.2 °F 100% 30.08 in 10.0 mi Calm Calm - N/A   Unknown
1:55 AM 48.2 °F - 48.2 °F 100% 30.08 in 10.0 mi Calm Calm - N/A   Unknown
2:15 AM 48.2 °F - 48.2 °F 100% 30.08 in 10.0 mi Calm Calm - N/A   Clear
2:35 AM 48.2 °F - 48.2 °F 100% 30.07 in 10.0 mi Calm Calm - N/A   Clear
2:55 AM 48.2 °F - 48.2 °F 100% 30.07 in 10.0 mi Calm Calm - N/A   Unknown
3:15 AM 48.2 °F - 48.2 °F 100% 30.07 in 10.0 mi Calm Calm - N/A   Clear
3:35 AM 48.2 °F - 48.2 °F 100% 30.08 in 10.0 mi Calm Calm - N/A   Clear
3:55 AM 48.2 °F - 48.2 °F 100% 30.08 in 10.0 mi Calm Calm - N/A   Clear
4:15 AM 48.2 °F - 48.2 °F 100% 30.08 in 10.0 mi Calm Calm - N/A   Clear
4:35 AM 46.4 °F - 46.4 °F 100% 30.09 in 10.0 mi Calm Calm - N/A   Clear
4:55 AM 48.2 °F - 48.2 °F 100% 30.09 in 10.0 mi Calm Calm - N/A   Clear
5:15 AM 48.2 °F - 48.2 °F 100% 30.09 in 10.0 mi Calm Calm - N/A   Clear
5:35 AM 46.4 °F - 46.4 °F 100% 30.09 in 10.0 mi Calm Calm - N/A   Clear
5:55 AM 46.4 °F 45.2 °F 46.4 °F 100% 30.09 in 10.0 mi ENE 3.5 mph - N/A   Clear
6:15 AM 46.4 °F 45.2 °F 46.4 °F 100% 30.10 in 10.0 mi NE 3.5 mph - N/A   Clear
6:35 AM 46.4 °F 45.2 °F 46.4 °F 100% 30.10 in 10.0 mi East 3.5 mph - N/A   Clear
6:55 AM 46.4 °F 44.3 °F 46.4 °F 100% 30.10 in 10.0 mi East 4.6 mph - N/A   Clear
7:15 AM 46.4 °F - 46.4 °F 100% 30.10 in 10.0 mi Calm Calm - N/A   Clear
7:35 AM 48.2 °F - 48.2 °F 100% 30.11 in 10.0 mi ENE 3.5 mph - N/A   Clear
7:55 AM 50.0 °F - 50.0 °F 100% 30.12 in 10.0 mi Calm Calm - N/A   Clear
8:15 AM 53.6 °F - 53.6 °F 100% 30.11 in 10.0 mi East 5.8 mph - N/A   Clear
8:55 AM 59.0 °F - 57.2 °F 94% 30.12 in 10.0 mi East 4.6 mph - N/A   Clear
9:15 AM 60.8 °F - 57.2 °F 88% 30.12 in 10.0 mi East 6.9 mph - N/A   Clear
9:35 AM 62.6 °F - 57.2 °F 82% 30.12 in 10.0 mi East 8.1 mph - N/A   Clear
9:55 AM 66.2 °F - 57.2 °F 73% 30.12 in 10.0 mi East 9.2 mph - N/A   Clear
10:15 AM 68.0 °F - 57.2 °F 68% 30.12 in 10.0 mi East 4.6 mph - N/A   Clear
10:35 AM 69.8 °F - 57.2 °F 64% 30.13 in 10.0 mi East 8.1 mph - N/A   Clear
10:55 AM 71.6 °F - 57.2 °F 60% 30.12 in 10.0 mi East 6.9 mph - N/A   Clear
11:35 AM 71.6 °F - 57.2 °F 60% 30.12 in 10.0 mi NE 8.1 mph - N/A   Clear
11:55 AM 73.4 °F - 57.2 °F 57% 30.11 in 10.0 mi ENE 4.6 mph - N/A   Clear
12:15 PM 73.4 °F - 57.2 °F 57% 30.10 in 10.0 mi ENE 6.9 mph - N/A   Clear
12:35 PM 75.2 °F - 57.2 °F 53% 30.10 in 10.0 mi East 6.9 mph - N/A   Clear
12:55 PM 75.2 °F - 57.2 °F 53% 30.08 in 10.0 mi NNE 4.6 mph - N/A   Clear
1:15 PM 75.2 °F - 57.2 °F 53% 30.07 in 10.0 mi NE 5.8 mph - N/A   Clear
1:35 PM 77.0 °F - 57.2 °F 50% 30.06 in 10.0 mi East 5.8 mph - N/A   Clear
1:55 PM 77.0 °F - 57.2 °F 50% 30.05 in 10.0 mi SE 4.6 mph - N/A   Clear
2:15 PM 77.0 °F - 57.2 °F 50% 30.04 in 10.0 mi East 6.9 mph - N/A   Clear
2:35 PM 78.8 °F - 57.2 °F 47% 30.04 in 10.0 mi East 10.4 mph - N/A   Partly Cloudy
2:55 PM 77.0 °F - 57.2 °F 50% 30.03 in 10.0 mi ESE 8.1 mph - N/A   Partly Cloudy
3:15 PM 78.8 °F - 57.2 °F 47% 30.02 in 10.0 mi East 6.9 mph - N/A   Clear
3:35 PM 78.8 °F - 57.2 °F 47% 30.01 in 10.0 mi East 5.8 mph - N/A   Partly Cloudy
3:55 PM 78.8 °F - 57.2 °F 47% 30.00 in 10.0 mi East 6.9 mph - N/A   Clear
4:15 PM 78.8 °F - 55.4 °F 44% 30.00 in 10.0 mi SSE 5.8 mph - N/A   Clear
4:35 PM 78.8 °F - 55.4 °F 44% 30.00 in 10.0 mi SSE 6.9 mph - N/A   Clear
5:15 PM 77.0 °F - 55.4 °F 47% 30.01 in 10.0 mi SSE 6.9 mph - N/A   Clear
5:35 PM 77.0 °F - 55.4 °F 47% 30.01 in 10.0 mi SE 3.5 mph - N/A   Clear
5:55 PM 75.2 °F - 55.4 °F 50% 30.01 in 10.0 mi ENE 3.5 mph - N/A   Clear
6:15 PM 71.6 °F - 57.2 °F 60% 30.02 in 10.0 mi ENE 3.5 mph - N/A   Clear
6:35 PM 68.0 °F - 59.0 °F 73% 30.02 in 10.0 mi Calm Calm - N/A   Partly Cloudy
6:55 PM 68.0 °F - 59.0 °F 73% 30.02 in 10.0 mi Calm Calm - N/A   Mostly Cloudy
7:15 PM 66.2 °F - 60.8 °F 83% 30.02 in 10.0 mi Calm Calm - N/A   Scattered Clouds
7:35 PM 66.2 °F - 60.8 °F 83% 30.03 in 10.0 mi Calm Calm - N/A   Partly Cloudy
7:55 PM 66.2 °F - 62.6 °F 88% 30.03 in 10.0 mi Calm Calm - N/A   Partly Cloudy
8:15 PM 64.4 °F - 60.8 °F 88% 30.03 in 10.0 mi Calm Calm - N/A   Unknown
8:35 PM 64.4 °F - 60.8 °F 88% 30.03 in 10.0 mi East 4.6 mph - N/A   Unknown
8:55 PM 64.4 °F - 62.6 °F 94% 30.03 in 10.0 mi Calm Calm - N/A   Scattered Clouds
9:15 PM 64.4 °F - 60.8 °F 88% 30.04 in 10.0 mi NE 3.5 mph - N/A   Clear
9:35 PM 62.6 °F - 60.8 °F 94% 30.04 in 10.0 mi Calm Calm - N/A   Partly Cloudy
9:55 PM 60.8 °F - 60.8 °F 100% 30.04 in 10.0 mi Calm Calm - N/A   Clear
10:15 PM 60.8 °F - 60.8 °F 100% 30.04 in 10.0 mi Calm Calm - N/A   Clear
10:35 PM 60.8 °F - 60.8 °F 100% 30.04 in 10.0 mi East 3.5 mph - N/A   Clear
10:55 PM 59.0 °F - 59.0 °F 100% 30.05 in 10.0 mi SE 3.5 mph - N/A   Clear
11:15 PM 60.8 °F - 60.8 °F 100% 30.05 in 10.0 mi ESE 4.6 mph - N/A   Partly Cloudy
11:35 PM 62.6 °F - 62.6 °F 100% 30.05 in 10.0 mi ESE 3.5 mph - N/A   Partly Cloudy
11:55 PM 60.8 °F - 60.8 °F 100% 30.05 in 10.0 mi Calm Calm - N/A   Clear